TimeCDT,TemperatureF,Dew PointF,Humidity,Sea Level PressureIn,VisibilityMPH,Wind Direction,Wind SpeedMPH,Gust SpeedMPH,PrecipitationIn,Events,Conditions,WindDirDegrees,DateUTC
12:13 AM,53.6,50.0,88,29.94,10.0,WSW,9.2,18.4,0.01,Rain,Light Rain,250,2013-09-15 05:13:00
12:34 AM,53.6,50.0,88,29.95,10.0,WSW,5.8,17.3,0.02,Rain,Light Rain,250,2013-09-15 05:34:00
12:54 AM,53.6,48.2,82,29.96,10.0,WSW,5.8,-,0.03,Rain,Rain,240,2013-09-15 05:54:00
1:13 AM,51.8,48.2,88,29.96,10.0,West,5.8,-,0.01,,Light Drizzle,260,2013-09-15 06:13:00
1:33 AM,51.8,48.2,88,29.96,7.0,West,5.8,-,0.05,Rain,Rain,260,2013-09-15 06:33:00
1:54 AM,51.8,48.2,88,29.97,5.0,West,3.5,-,0.11,Rain,Heavy Rain,270,2013-09-15 06:54:00
2:14 AM,51.8,48.2,88,29.97,7.0,Calm,Calm,-,0.03,Rain,Rain,0,2013-09-15 07:14:00
2:34 AM,51.8,48.2,88,29.97,10.0,West,4.6,-,0.04,Rain,Light Rain,280,2013-09-15 07:34:00
2:53 AM,51.8,48.2,88,29.96,7.0,West,4.6,-,0.06,,Drizzle,280,2013-09-15 07:53:00
3:13 AM,51.8,48.2,88,29.97,7.0,NNW,3.5,-,0.03,Rain,Rain,330,2013-09-15 08:13:00
3:34 AM,51.8,48.2,88,29.98,7.0,NNE,9.2,-,0.07,Rain,Light Rain,20,2013-09-15 08:34:00
3:54 AM,51.8,48.2,88,29.99,4.0,NNE,12.7,-,0.07,,Drizzle,30,2013-09-15 08:54:00
4:13 AM,50.0,46.4,87,30.00,4.0,North,11.5,17.3,0.01,Rain,Rain,10,2013-09-15 09:13:00
4:34 AM,48.2,44.6,87,30.00,3.0,North,11.5,19.6,0.03,,Drizzle,10,2013-09-15 09:34:00
4:54 AM,48.2,44.6,87,30.01,2.5,NNE,16.1,-,0.05,Rain,Rain,20,2013-09-15 09:54:00
5:13 AM,46.4,44.6,93,30.02,4.0,North,15.0,23.0,0.02,Rain,Light Rain,10,2013-09-15 10:13:00
5:34 AM,46.4,42.8,87,30.02,5.0,North,11.5,21.9,0.02,,Drizzle,10,2013-09-15 10:34:00
5:54 AM,44.6,41.0,87,30.03,10.0,North,16.1,20.7,0.02,,Overcast,10,2013-09-15 10:54:00
6:13 AM,44.6,41.0,87,30.04,10.0,North,12.7,20.7,N/A,,Overcast,10,2013-09-15 11:13:00
6:33 AM,44.6,41.0,87,30.05,7.0,North,11.5,-,N/A,,Overcast,10,2013-09-15 11:33:00
6:54 AM,44.6,41.0,87,30.06,7.0,North,12.7,17.3,N/A,,Overcast,10,2013-09-15 11:54:00
7:13 AM,44.6,41.0,87,30.07,2.5,North,9.2,-,N/A,Rain,Light Rain,10,2013-09-15 12:13:00
7:33 AM,42.8,39.2,87,30.08,7.0,North,13.8,20.7,N/A,,Overcast,10,2013-09-15 12:33:00
7:53 AM,42.8,39.2,87,30.09,10.0,North,11.5,21.9,0.01,,Overcast,10,2013-09-15 12:53:00
8:13 AM,42.8,39.2,87,30.10,10.0,North,12.7,21.9,N/A,,Overcast,10,2013-09-15 13:13:00
8:34 AM,42.8,39.2,87,30.11,10.0,North,12.7,-,N/A,,Overcast,10,2013-09-15 13:34:00
8:53 AM,42.8,39.2,87,30.12,1.8,North,10.4,-,N/A,,Overcast,10,2013-09-15 13:53:00
9:14 AM,42.8,39.2,87,30.13,4.0,NNW,15.0,19.6,N/A,,Overcast,340,2013-09-15 14:14:00
9:33 AM,44.6,39.2,81,30.14,10.0,North,15.0,20.7,N/A,,Overcast,350,2013-09-15 14:33:00
9:53 AM,42.8,39.2,87,30.15,5.0,NNW,12.7,18.4,N/A,,Overcast,340,2013-09-15 14:53:00
10:14 AM,44.6,37.4,76,30.16,10.0,North,11.5,17.3,N/A,,Overcast,350,2013-09-15 15:14:00
10:33 AM,46.4,39.2,76,30.16,7.0,North,12.7,19.6,N/A,,Overcast,350,2013-09-15 15:33:00
10:54 AM,44.6,37.4,76,30.17,10.0,North,11.5,18.4,N/A,,Mostly Cloudy,10,2013-09-15 15:54:00
11:13 AM,46.4,37.4,71,30.18,10.0,North,11.5,17.3,N/A,,Mostly Cloudy,360,2013-09-15 16:13:00
11:33 AM,44.6,39.2,81,30.19,5.0,North,11.5,17.3,N/A,,Haze,350,2013-09-15 16:33:00
11:54 AM,48.2,39.2,71,30.19,10.0,North,11.5,-,N/A,,Overcast,10,2013-09-15 16:54:00
12:13 PM,46.4,37.4,71,30.20,10.0,NNW,11.5,16.1,N/A,,Overcast,330,2013-09-15 17:13:00
12:33 PM,48.2,37.4,66,30.20,10.0,NNW,11.5,17.3,N/A,,Mostly Cloudy,330,2013-09-15 17:33:00
12:53 PM,48.2,37.4,66,30.20,10.0,NNW,10.4,16.1,N/A,,Mostly Cloudy,330,2013-09-15 17:53:00
1:14 PM,50.0,37.4,62,30.20,10.0,North,8.1,-,N/A,,Scattered Clouds,360,2013-09-15 18:14:00
1:34 PM,51.8,37.4,58,30.21,10.0,NNW,11.5,16.1,N/A,,Scattered Clouds,330,2013-09-15 18:34:00
1:54 PM,51.8,37.4,58,30.21,10.0,NNW,6.9,-,N/A,,Mostly Cloudy,340,2013-09-15 18:54:00
2:14 PM,51.8,37.4,58,30.22,10.0,NW,5.8,-,N/A,,Scattered Clouds,320,2013-09-15 19:14:00
2:33 PM,51.8,37.4,58,30.23,10.0,NW,5.8,-,N/A,,Clear,320,2013-09-15 19:33:00
2:54 PM,53.6,37.4,54,30.23,10.0,WNW,5.8,-,N/A,,Scattered Clouds,300,2013-09-15 19:54:00
3:13 PM,53.6,35.6,51,30.23,10.0,NW,9.2,-,N/A,,Scattered Clouds,320,2013-09-15 20:13:00
3:33 PM,53.6,35.6,51,30.23,10.0,NW,6.9,-,N/A,,Clear,310,2013-09-15 20:33:00
3:54 PM,53.6,37.4,54,30.23,10.0,NW,6.9,-,N/A,,Clear,310,2013-09-15 20:54:00
4:13 PM,53.6,33.8,47,30.24,10.0,North,8.1,-,N/A,,Clear,10,2013-09-15 21:13:00
4:33 PM,53.6,33.8,47,30.24,10.0,NNW,6.9,-,N/A,,Clear,340,2013-09-15 21:33:00
4:54 PM,53.6,33.8,47,30.25,10.0,NNW,8.1,-,N/A,,Clear,340,2013-09-15 21:54:00
5:13 PM,53.6,33.8,47,30.24,10.0,NNW,3.5,-,N/A,,Clear,330,2013-09-15 22:13:00
5:33 PM,53.6,33.8,47,30.25,10.0,NNW,4.6,-,N/A,,Clear,340,2013-09-15 22:33:00
5:53 PM,51.8,32.0,47,30.26,10.0,NW,8.1,-,N/A,,Clear,320,2013-09-15 22:53:00
6:13 PM,51.8,33.8,50,30.26,10.0,NNW,3.5,-,N/A,,Clear,330,2013-09-15 23:13:00
6:33 PM,48.2,35.6,62,30.26,10.0,NNW,3.5,-,N/A,,Clear,330,2013-09-15 23:33:00
6:54 PM,46.4,35.6,66,30.27,10.0,NNW,3.5,-,N/A,,Clear,330,2013-09-15 23:54:00
7:13 PM,44.6,35.6,71,30.28,10.0,Calm,Calm,-,N/A,,Clear,0,2013-09-16 00:13:00
7:34 PM,42.8,35.6,76,30.29,10.0,Calm,Calm,-,N/A,,Clear,0,2013-09-16 00:34:00
7:53 PM,41.0,35.6,81,30.29,10.0,Calm,Calm,-,N/A,,Clear,0,2013-09-16 00:53:00
8:13 PM,39.2,35.6,87,30.29,10.0,Calm,Calm,-,N/A,,Clear,0,2013-09-16 01:13:00
8:34 PM,37.4,33.8,87,30.29,10.0,Calm,Calm,-,N/A,,Clear,0,2013-09-16 01:34:00
8:54 PM,37.4,33.8,87,30.30,10.0,Calm,Calm,-,N/A,,Clear,0,2013-09-16 01:54:00
9:13 PM,35.6,33.8,93,30.30,10.0,NW,3.5,-,N/A,,Clear,310,2013-09-16 02:13:00
9:33 PM,35.6,32.0,87,30.31,10.0,NNW,3.5,-,N/A,,Clear,340,2013-09-16 02:33:00
9:53 PM,35.6,32.0,87,30.31,10.0,NNW,3.5,-,N/A,,Clear,330,2013-09-16 02:53:00
10:13 PM,33.8,30.2,87,30.31,10.0,NNW,5.8,-,N/A,,Clear,340,2013-09-16 03:13:00
10:34 PM,32.0,28.4,87,30.32,10.0,NNW,4.6,-,N/A,,Clear,340,2013-09-16 03:34:00
10:53 PM,33.8,30.2,87,30.32,10.0,NNW,5.8,-,N/A,,Clear,340,2013-09-16 03:53:00
11:13 PM,33.8,30.2,87,30.32,10.0,NNW,4.6,-,N/A,,Clear,340,2013-09-16 04:13:00
11:33 PM,32.0,28.4,87,30.33,10.0,NNW,4.6,-,N/A,,Clear,340,2013-09-16 04:33:00
11:53 PM,33.8,30.2,87,30.33,10.0,NNW,4.6,-,N/A,,Clear,340,2013-09-16 04:53:00